COSMOS 1252

Satellite information

Favourite Embed

Satellite Type and Status

PAYLOADIN ORBIT

Key statistics

Satellite COSMOS 1252 at a glance.

Uptime

16307

Days in orbit

Revolutions

≈ 12.5

Per day

Orbit

LEO

Low Earth Orbit

Inclination

74.0

Latest

Satellite identification and parameters

Extended collection of information and parameters for COSMOS 1252.

Object identification

Identified? True

Debris? False

Object name: COSMOS 1252

International designator: 1981-022C

Object number (NORAD): 12322

Object ID (CCSDS): 12322

Country: COMMONWEALTH OF INDEPENDENT STATES (CIS)

Current information (Y/N): Y

RCS size: MEDIUM

Orbital parameters

Period: 114.759 minutes

Inclination: 74.028 deg

SMA: 7822.592 km

Apoapsis: 1471.867 km

Periapsis: 1417.046 km

RAAN: 85.8518 deg

Eccentricy: 0.00350406

Argument of periapsis: 221.3156 deg

Mean anomaly: 257.1634 deg

Mean motion: 12.54806555 rev/day

Mean motion (dot): 0.0 rev/day2

B* drag term: 0.00010156903 1/REarth

Two-line elements (TLE)

Creation date: Oct. 28, 2025, 2:18 a.m.

Reference frame: TEME

Reference center: EARTH

Epoch: Oct. 27, 2025, 9:34 p.m. UTC

TLE line 0: 0 COSMOS 1252

TLE line 1: 1 12322U 81022C 25300.89863921 .00000000 00000-0 10157-3 0 9996

TLE line 2: 2 12322 74.0280 85.8518 0035041 221.3156 257.1634 12.54806555 45010

Live tracking on map

Real-time ground track for satellite COSMOS 1252.

In-orbit conjunctions

A list of the most updated potential collisions computed for object COSMOS 1252.

Target Orbit TCA Probability of collision Miss distance Type
DELTA 1 DEB SSO 2024-09-30 21:14:01 0.0002459494 239.0 (m) DEBRIS

Associated space launch

Military communications satellites

COSMOS 1252 was lifted into orbit during the mission ‘Kosmos-3M | Strela-1M 209-216’, on board a Kosmos-3M space rocket.

The launch took place on March 6, 1981, 11:31 a.m. from 132/2.

For more information about the launch, click the button.

Launch to space Kosmos-3M | Strela-1M 209-216
Kosmos-3M | Strela-1M 209-216

Agency: N/A

Status: Launch Successful

Launch date: March 6, 1981, 11:31 a.m. UTC

Rocket: Kosmos-3M

Launch pad: 132/2

Location: Plesetsk Cosmodrome, Russian Federation

...

Latest news about this satellite

There are no fresh news available about this satellite. Check back as we update our databases every day.


Newsletter sign-up

Weekly statistics, charts and insights to help you stay on top of the space industry.